When you browse on this site, cookies collect data to enhance your experience and personalize the content and advertising you see.
Visit our Privacy Policy to learn more. By continuing to use the site, you agree to this use of cookies and data.
  • In Österreich
  • Länderverzeichnis
  • Für 7 Tage
  • Wassertemperatur
  • Wetterkarte
  • News
  • Widgets
  • user-avatar
    Anmelden

    Stündliche Wetter Paispamba

    Heute, 12 Dezember, Donnerstag

    Zeit Temperatur Niederschläge Wind Luftdruck Luftfeuchtigkeit
    00:00 +12°C° 2.4 mm 0 m/S 568 mmHg 98%
    01:00 +11°C° 2.4 mm 0 m/S 568 mmHg 98%
    02:00 +11°C° 0.6 mm 0 m/S 568 mmHg 98%
    03:00 +11°C° 0.6 mm 0 m/S 568 mmHg 98%
    04:00 +11°C° 0.6 mm 0 m/S 567 mmHg 98%
    05:00 +11°C° 0.1 mm 0 m/S 568 mmHg 98%
    06:00 +12°C° 0.1 mm 0 m/S 568 mmHg 97%
    07:00 +12°C° 0.1 mm 0 m/S 568 mmHg 97%
    08:00 +13°C° 0.2 mm 0 m/S 569 mmHg 92%
    09:00 +16°C° 0.2 mm 1 m/S 570 mmHg 87%
    10:00 +18°C° 0.2 mm 1 m/S 571 mmHg 82%
    11:00 +18°C° 0.6 mm 1 m/S 571 mmHg 84%
    12:00 +18°C° 0.6 mm 1 m/S 570 mmHg 85%
    13:00 +18°C° 0.6 mm 1 m/S 569 mmHg 87%
    14:00 +18°C° 1 mm 1 m/S 569 mmHg 89%
    15:00 +16°C° 1 mm 1 m/S 568 mmHg 91%
    16:00 +16°C° 1 mm 1 m/S 567 mmHg 94%
    17:00 +15°C° 0.5 mm 1 m/S 567 mmHg 95%
    18:00 +14°C° 0.5 mm 1 m/S 567 mmHg 96%
    19:00 +13°C° 0.5 mm 1 m/S 567 mmHg 98%
    20:00 +12°C° 0.2 mm 0 m/S 568 mmHg 97%
    21:00 +12°C° 0.2 mm 0 m/S 568 mmHg 97%
    22:00 +11°C° 0.2 mm 0 m/S 568 mmHg 97%
    23:00 +11°C° 0.1 mm 0 m/S 568 mmHg 97%

    Morgen, 13 Dezember, Freitag

    Zeit Temperatur Niederschläge Wind Luftdruck Luftfeuchtigkeit
    00:00 +11°C° 0.1 mm 0 m/S 568 mmHg 97%
    01:00 +11°C° 0.1 mm 0 m/S 567 mmHg 97%
    02:00 +11°C° 0.2 mm 0 m/S 567 mmHg 97%
    03:00 +11°C° 0.2 mm 0 m/S 567 mmHg 97%
    04:00 +11°C° 0.2 mm 0 m/S 567 mmHg 98%
    05:00 +11°C° 0.2 mm 0 m/S 567 mmHg 97%
    06:00 +11°C° 0.2 mm 0 m/S 568 mmHg 97%
    07:00 +12°C° 0.2 mm 0 m/S 568 mmHg 97%
    08:00 +12°C° 0.2 mm 0 m/S 569 mmHg 95%
    09:00 +13°C° 0.2 mm 0 m/S 569 mmHg 94%
    10:00 +13°C° 0.2 mm 0 m/S 570 mmHg 92%
    11:00 +15°C° 0.4 mm 1 m/S 570 mmHg 92%
    12:00 +15°C° 0.4 mm 1 m/S 569 mmHg 91%
    13:00 +16°C° 0.4 mm 1 m/S 569 mmHg 90%
    14:00 +15°C° 0.6 mm 1 m/S 568 mmHg 91%
    15:00 +15°C° 0.6 mm 1 m/S 568 mmHg 91%
    16:00 +15°C° 0.6 mm 1 m/S 567 mmHg 92%
    17:00 +14°C° 0.3 mm 1 m/S 567 mmHg 94%
    18:00 +12°C° 0.3 mm 0 m/S 567 mmHg 95%
    19:00 +12°C° 0.3 mm 0 m/S 567 mmHg 97%
    20:00 +12°C° 0.2 mm 0 m/S 568 mmHg 97%
    21:00 +11°C° 0.2 mm 0 m/S 568 mmHg 97%
    22:00 +11°C° 0.2 mm 0 m/S 568 mmHg 96%
    23:00 +11°C° 0.3 mm 0 m/S 568 mmHg 97%

    übermorgen, 14 Dezember, Samstag

    Zeit Temperatur Niederschläge Wind Luftdruck Luftfeuchtigkeit
    00:00 +11°C° 0.3 mm 0 m/S 568 mmHg 97%
    01:00 +11°C° 0.3 mm 0 m/S 567 mmHg 97%
    02:00 +11°C° 0.6 mm 0 m/S 567 mmHg 97%
    03:00 +11°C° 0.6 mm 0 m/S 567 mmHg 97%
    04:00 +11°C° 0.6 mm 0 m/S 567 mmHg 97%
    05:00 +11°C° 0.9 mm 0 m/S 568 mmHg 97%
    06:00 +11°C° 0.9 mm 0 m/S 568 mmHg 97%
    07:00 +12°C° 0.9 mm 0 m/S 568 mmHg 97%
    08:00 +12°C° 0.3 mm 0 m/S 569 mmHg 96%
    09:00 +13°C° 0.3 mm 0 m/S 570 mmHg 94%
    10:00 +14°C° 0.3 mm 0 m/S 570 mmHg 92%
    11:00 +15°C° 0.7 mm 1 m/S 570 mmHg 91%
    12:00 +16°C° 0.7 mm 1 m/S 570 mmHg 90%
    13:00 +18°C° 0.7 mm 1 m/S 570 mmHg 89%
    14:00 +16°C° 1.1 mm 1 m/S 569 mmHg 91%
    15:00 +16°C° 1.1 mm 1 m/S 569 mmHg 93%
    16:00 +15°C° 1.1 mm 1 m/S 568 mmHg 94%
    17:00 +15°C° 1 mm 1 m/S 568 mmHg 95%
    18:00 +13°C° 1 mm 0 m/S 568 mmHg 97%
    19:00 +12°C° 1 mm 0 m/S 568 mmHg 98%
    20:00 +12°C° 1.1 mm 0 m/S 568 mmHg 98%
    21:00 +12°C° 1.1 mm 0 m/S 569 mmHg 98%
    22:00 +12°C° 1.1 mm 0 m/S 569 mmHg 98%
    23:00 +11°C° 0.6 mm 0 m/S 569 mmHg 98%

    15 Dezember, Sonntag

    Zeit Temperatur Niederschläge Wind Luftdruck Luftfeuchtigkeit
    00:00 +11°C° 0.6 mm 0 m/S 569 mmHg 98%
    01:00 +11°C° 0.6 mm 0 m/S 568 mmHg 98%
    02:00 +11°C° 0.1 mm 0 m/S 568 mmHg 97%
    03:00 +11°C° 0.1 mm 0 m/S 568 mmHg 97%
    04:00 +11°C° 0.1 mm 0 m/S 568 mmHg 97%
    05:00 +11°C° 0 mm 0 m/S 568 mmHg 96%
    06:00 +11°C° 0.1 mm 0 m/S 569 mmHg 96%
    07:00 +12°C° 0.1 mm 0 m/S 569 mmHg 95%
    08:00 +13°C° 0.2 mm 0 m/S 570 mmHg 93%
    09:00 +15°C° 0.2 mm 1 m/S 571 mmHg 90%
    10:00 +16°C° 0.2 mm 1 m/S 572 mmHg 87%
    11:00 +16°C° 0.9 mm 1 m/S 571 mmHg 88%
    12:00 +15°C° 0.9 mm 0 m/S 570 mmHg 89%
    13:00 +15°C° 0.9 mm 0 m/S 570 mmHg 90%
    14:00 +15°C° 1.1 mm 0 m/S 569 mmHg 92%
    15:00 +15°C° 1.1 mm 0 m/S 569 mmHg 93%
    16:00 +15°C° 1.1 mm 0 m/S 568 mmHg 94%
    17:00 +14°C° 0.7 mm 0 m/S 568 mmHg 96%
    18:00 +13°C° 0.7 mm 0 m/S 568 mmHg 97%
    19:00 +13°C° 0.7 mm 0 m/S 568 mmHg 98%
    20:00 +12°C° 0.5 mm 0 m/S 569 mmHg 98%
    21:00 +12°C° 0.5 mm 0 m/S 569 mmHg 98%
    22:00 +12°C° 0.5 mm 0 m/S 569 mmHg 98%
    23:00 +12°C° 0.3 mm 0 m/S 569 mmHg 98%

    16 Dezember, Montag

    Zeit Temperatur Niederschläge Wind Luftdruck Luftfeuchtigkeit
    00:00 +12°C° 0.3 mm 0 m/S 569 mmHg 98%
    01:00 +12°C° 0.3 mm 0 m/S 568 mmHg 98%
    02:00 +12°C° 0.4 mm 0 m/S 568 mmHg 98%
    03:00 +12°C° 0.4 mm 0 m/S 568 mmHg 98%
    04:00 +12°C° 0.4 mm 0 m/S 568 mmHg 98%
    05:00 +12°C° 0.2 mm 0 m/S 568 mmHg 98%
    06:00 +12°C° 0.2 mm 0 m/S 569 mmHg 97%
    07:00 +12°C° 0.2 mm 0 m/S 569 mmHg 97%
    08:00 +13°C° 0.2 mm 0 m/S 570 mmHg 95%
    09:00 +14°C° 0.2 mm 0 m/S 570 mmHg 92%
    10:00 +15°C° 0.2 mm 0 m/S 571 mmHg 89%
    11:00 +18°C° 1.3 mm 1 m/S 571 mmHg 89%
    12:00 +18°C° 1.3 mm 1 m/S 570 mmHg 89%
    13:00 +18°C° 1.3 mm 1 m/S 570 mmHg 90%
    14:00 +18°C° 1.8 mm 1 m/S 569 mmHg 91%
    15:00 +18°C° 1.8 mm 1 m/S 568 mmHg 93%
    16:00 +16°C° 1.8 mm 1 m/S 567 mmHg 95%
    17:00 +14°C° 1.2 mm 0 m/S 567 mmHg 96%
    18:00 +13°C° 1.2 mm 0 m/S 567 mmHg 97%
    19:00 +13°C° 1.2 mm 0 m/S 567 mmHg 98%
    20:00 +13°C° 2.3 mm 0 m/S 568 mmHg 98%
    21:00 +12°C° 2.3 mm 0 m/S 568 mmHg 98%
    22:00 +12°C° 2.3 mm 0 m/S 569 mmHg 98%
    23:00 +12°C° 1.4 mm 0 m/S 568 mmHg 98%

    17 Dezember, Dienstag

    Zeit Temperatur Niederschläge Wind Luftdruck Luftfeuchtigkeit
    00:00 +12°C° 1.4 mm 0 m/S 568 mmHg 98%
    01:00 +12°C° 1.4 mm 0 m/S 568 mmHg 98%
    02:00 +12°C° 0.2 mm 0 m/S 567 mmHg 98%
    03:00 +11°C° 0.2 mm 0 m/S 567 mmHg 98%
    04:00 +11°C° 0.2 mm 0 m/S 567 mmHg 98%
    05:00 +12°C° 0 mm 0 m/S 567 mmHg 97%
    06:00 +12°C° 0 mm 0 m/S 568 mmHg 96%
    07:00 +12°C° 0 mm 0 m/S 568 mmHg 96%
    08:00 +14°C° 0.2 mm 0 m/S 569 mmHg 90%
    09:00 +16°C° 0.2 mm 1 m/S 570 mmHg 85%
    10:00 +19°C° 0.2 mm 1 m/S 571 mmHg 80%
    11:00 +19°C° 1.3 mm 1 m/S 570 mmHg 83%
    12:00 +19°C° 1.3 mm 1 m/S 569 mmHg 87%
    13:00 +18°C° 1.3 mm 1 m/S 569 mmHg 90%
    14:00 +18°C° 1.6 mm 1 m/S 568 mmHg 92%
    15:00 +16°C° 1.6 mm 1 m/S 567 mmHg 93%
    16:00 +16°C° 1.6 mm 1 m/S 567 mmHg 95%
    17:00 +15°C° 1.1 mm 1 m/S 567 mmHg 96%
    18:00 +14°C° 1.1 mm 1 m/S 567 mmHg 97%
    19:00 +13°C° 1.1 mm 0 m/S 567 mmHg 98%
    20:00 +12°C° 1.2 mm 0 m/S 567 mmHg 98%
    21:00 +12°C° 1.2 mm 0 m/S 567 mmHg 98%
    22:00 +12°C° 1.2 mm 0 m/S 568 mmHg 98%
    23:00 +12°C° 1.4 mm 0 m/S 568 mmHg 97%
    Mehr zeigen